Wetterdaten: Freitag, 22.06.2012
Datum Zeit Temperatur Luftfeuchte Regen Wind Richtung Richtung Taupunkt Windchill Windben
22.06.2012 00:03 14,7 C 85 % 0,0 l/m 7,1 km/h (2 Bft) S 180 12,2 C 13,5 C 7,2 km/h (2 Bft)
22.06.2012 00:09 14,7 C 85 % 0,0 l/m 7,1 km/h (2 Bft) S 180 12,2 C 13,5 C 7,2 km/h (2 Bft)
22.06.2012 00:10 14,7 C 85 % 0,0 l/m 7,1 km/h (2 Bft) S 180 12,2 C 13,5 C 7,2 km/h (2 Bft)
22.06.2012 00:20 14,6 C 86 % 0,0 l/m 6,0 km/h (2 Bft) O-SO 112 12,3 C 14,1 C 9,5 km/h (2 Bft)
22.06.2012 00:25 14,6 C 86 % 0,0 l/m 6,0 km/h (2 Bft) S 180 12,3 C 14,1 C 5,8 km/h (2 Bft)
22.06.2012 00:30 14,5 C 86 % 0,0 l/m 5,0 km/h (1 Bft) N-NW 337 12,2 C 14,1 C 7,9 km/h (2 Bft)
22.06.2012 00:35 14,6 C 86 % 0,0 l/m 3,7 km/h (1 Bft) S-SO 157 12,3 C 14,1 C 4,0 km/h (1 Bft)
22.06.2012 00:40 14,5 C 86 % 0,0 l/m 3,2 km/h (1 Bft) O-SO 112 12,2 C 14,1 C 3,9 km/h (1 Bft)
22.06.2012 00:45 14,5 C 86 % 0,0 l/m 2,9 km/h (1 Bft) O 90 12,2 C 14,1 C 3,2 km/h (1 Bft)
22.06.2012 00:50 14,6 C 86 % 0,0 l/m 3,5 km/h (1 Bft) O-SO 112 12,3 C 14,1 C 2,9 km/h (1 Bft)
22.06.2012 00:53 14,8 C 85 % 0,0 l/m 1,9 km/h (1 Bft) O-SO 112 12,3 C 14,3 C 5,1 km/h (1 Bft)
22.06.2012 00:58 14,8 C 85 % 0,0 l/m 1,9 km/h (1 Bft) N-NO 22 12,3 C 14,4 C 0,0 km/h (0 Bft)
22.06.2012 01:03 14,9 C 84 % 0,0 l/m 1,1 km/h (1 Bft) O-NO 67 12,2 C 14,3 C 0,0 km/h (0 Bft)
22.06.2012 01:08 14,9 C 84 % 0,0 l/m 0,3 km/h (0 Bft) W 270 12,2 C 14,3 C 1,8 km/h (1 Bft)
22.06.2012 01:13 14,8 C 84 % 0,0 l/m 0,3 km/h (0 Bft) S-SO 157 12,1 C 14,4 C 0,0 km/h (0 Bft)
22.06.2012 01:18 14,8 C 84 % 0,0 l/m 0,3 km/h (0 Bft) N 360 12,1 C 14,4 C 0,0 km/h (0 Bft)
22.06.2012 01:23 14,8 C 84 % 0,0 l/m 0,2 km/h (0 Bft) SO 135 12,1 C 14,4 C 0,0 km/h (0 Bft)
22.06.2012 01:28 14,7 C 84 % 0,0 l/m 0,2 km/h (0 Bft) N 360 12,0 C 14,4 C 0,0 km/h (0 Bft)
22.06.2012 01:33 14,8 C 84 % 0,0 l/m 0,0 km/h (0 Bft) N-NW 337 12,1 C 14,4 C 0,0 km/h (0 Bft)
22.06.2012 01:38 14,8 C 84 % 0,0 l/m 0,0 km/h (0 Bft) W 270 12,1 C 14,4 C 0,0 km/h (0 Bft)
22.06.2012 01:43 14,8 C 84 % 0,0 l/m 0,0 km/h (0 Bft) N 360 12,1 C 14,4 C 0,0 km/h (0 Bft)
22.06.2012 01:48 14,7 C 84 % 0,0 l/m 0,0 km/h (0 Bft) N-NW 337 12,0 C 14,3 C 0,0 km/h (0 Bft)
22.06.2012 01:53 14,6 C 84 % 0,0 l/m 0,0 km/h (0 Bft) W 270 11,9 C 14,2 C 0,0 km/h (0 Bft)
22.06.2012 01:58 14,6 C 84 % 0,0 l/m 0,0 km/h (0 Bft) W 270 11,9 C 14,1 C 0,0 km/h (0 Bft)
22.06.2012 02:03 14,6 C 84 % 0,0 l/m 0,0 km/h (0 Bft) O-SO 112 11,9 C 14,1 C 0,0 km/h (0 Bft)
22.06.2012 02:08 14,6 C 84 % 0,0 l/m 0,0 km/h (0 Bft) N-NO 22 11,9 C 14,1 C 0,0 km/h (0 Bft)
22.06.2012 02:13 14,6 C 85 % 0,0 l/m 0,0 km/h (0 Bft) N-NW 337 12,1 C 14,1 C 0,0 km/h (0 Bft)
22.06.2012 02:18 14,6 C 85 % 0,0 l/m 0,0 km/h (0 Bft) N-NW 337 12,1 C 14,1 C 0,0 km/h (0 Bft)
22.06.2012 02:23 14,5 C 85 % 0,0 l/m 0,2 km/h (0 Bft) N 360 12,0 C 14,1 C 1,6 km/h (1 Bft)
22.06.2012 02:28 14,6 C 84 % 0,0 l/m 0,2 km/h (0 Bft) NO 45 11,9 C 14,1 C 0,0 km/h (0 Bft)
22.06.2012 02:33 14,5 C 84 % 0,0 l/m 0,2 km/h (0 Bft) N 360 11,8 C 14,1 C 0,0 km/h (0 Bft)
22.06.2012 02:38 14,5 C 84 % 0,0 l/m 0,2 km/h (0 Bft) N-NO 22 11,8 C 14,1 C 0,0 km/h (0 Bft)
22.06.2012 02:43 14,4 C 84 % 0,0 l/m 0,0 km/h (0 Bft) NO 45 11,7 C 13,9 C 0,0 km/h (0 Bft)
22.06.2012 02:48 14,3 C 84 % 0,0 l/m 0,2 km/h (0 Bft) SO 135 11,6 C 13,8 C 1,8 km/h (1 Bft)
22.06.2012 02:53 14,3 C 85 % 0,0 l/m 0,5 km/h (0 Bft) S 180 11,8 C 13,8 C 0,0 km/h (0 Bft)
22.06.2012 02:58 14,2 C 85 % 0,0 l/m 0,5 km/h (0 Bft) N-NO 22 11,7 C 13,8 C 0,0 km/h (0 Bft)
22.06.2012 03:03 14,3 C 85 % 0,0 l/m 0,3 km/h (0 Bft) O 90 11,8 C 13,9 C 0,0 km/h (0 Bft)
22.06.2012 03:08 14,3 C 86 % 0,0 l/m 0,5 km/h (0 Bft) N 360 12,0 C 13,8 C 0,0 km/h (0 Bft)
22.06.2012 03:13 14,4 C 86 % 0,0 l/m 0,5 km/h (0 Bft) N 360 12,1 C 13,9 C 1,9 km/h (1 Bft)
22.06.2012 03:18 14,4 C 86 % 0,0 l/m 0,3 km/h (0 Bft) NO 45 12,1 C 14,0 C 0,0 km/h (0 Bft)
22.06.2012 03:23 14,5 C 86 % 0,0 l/m 0,2 km/h (0 Bft) NO 45 12,2 C 14,0 C 0,0 km/h (0 Bft)
22.06.2012 03:28 14,4 C 86 % 0,0 l/m 0,0 km/h (0 Bft) N-NO 22 12,1 C 14,0 C 0,0 km/h (0 Bft)
22.06.2012 03:33 14,4 C 86 % 0,0 l/m 0,0 km/h (0 Bft) NO 45 12,1 C 14,0 C 0,0 km/h (0 Bft)
22.06.2012 03:38 14,4 C 86 % 0,0 l/m 0,0 km/h (0 Bft) O 90 12,1 C 13,9 C 0,0 km/h (0 Bft)
22.06.2012 03:43 14,4 C 86 % 0,0 l/m 0,0 km/h (0 Bft) NO 45 12,1 C 13,9 C 0,0 km/h (0 Bft)
22.06.2012 03:48 14,3 C 86 % 0,0 l/m 0,0 km/h (0 Bft) S 180 12,0 C 13,7 C 0,0 km/h (0 Bft)
22.06.2012 03:53 14,0 C 86 % 0,0 l/m 0,0 km/h (0 Bft) W-NW 292 11,7 C 13,7 C 0,0 km/h (0 Bft)
22.06.2012 03:58 14,0 C 86 % 0,0 l/m 0,0 km/h (0 Bft) W 270 11,7 C 13,6 C 0,0 km/h (0 Bft)
22.06.2012 04:03 14,1 C 87 % 0,0 l/m 0,0 km/h (0 Bft) N-NO 22 12,0 C 13,6 C 0,0 km/h (0 Bft)
22.06.2012 04:08 14,2 C 87 % 0,0 l/m 0,2 km/h (0 Bft) N-NO 22 12,1 C 13,6 C 0,0 km/h (0 Bft)
22.06.2012 04:13 14,5 C 85 % 0,0 l/m 0,3 km/h (0 Bft) N 360 12,0 C 13,7 C 0,0 km/h (0 Bft)
22.06.2012 04:18 14,5 C 85 % 0,0 l/m 0,2 km/h (0 Bft) N-NO 22 12,0 C 13,7 C 0,0 km/h (0 Bft)
22.06.2012 04:23 14,3 C 84 % 0,0 l/m 0,3 km/h (0 Bft) N-NO 22 11,6 C 13,7 C 0,0 km/h (0 Bft)
22.06.2012 04:28 14,1 C 84 % 0,0 l/m 0,3 km/h (0 Bft) N-NO 22 11,4 C 13,7 C 0,0 km/h (0 Bft)
22.06.2012 04:33 14,0 C 84 % 0,0 l/m 0,5 km/h (0 Bft) N-NO 22 11,3 C 13,5 C 1,9 km/h (1 Bft)
22.06.2012 04:38 13,9 C 85 % 0,0 l/m 0,5 km/h (0 Bft) N-NO 22 11,4 C 13,5 C 0,0 km/h (0 Bft)
22.06.2012 04:43 13,7 C 84 % 0,0 l/m 0,3 km/h (0 Bft) N 360 11,0 C 13,2 C 1,9 km/h (1 Bft)
22.06.2012 04:48 13,8 C 84 % 0,0 l/m 0,3 km/h (0 Bft) NO 45 11,1 C 13,1 C 0,0 km/h (0 Bft)
22.06.2012 04:53 13,3 C 85 % 0,0 l/m 0,6 km/h (0 Bft) W 270 10,8 C 12,9 C 0,0 km/h (0 Bft)
22.06.2012 04:58 13,1 C 85 % 0,0 l/m 0,5 km/h (0 Bft) N-NO 22 10,6 C 12,8 C 1,6 km/h (1 Bft)
22.06.2012 05:03 13,0 C 85 % 0,0 l/m 0,5 km/h (0 Bft) O 90 10,5 C 12,5 C 0,0 km/h (0 Bft)
22.06.2012 05:08 12,7 C 86 % 0,0 l/m 0,8 km/h (0 Bft) O-SO 112 10,4 C 12,3 C 0,0 km/h (0 Bft)
22.06.2012 05:13 12,9 C 87 % 0,0 l/m 1,0 km/h (0 Bft) N 360 10,8 C 12,2 C 0,0 km/h (0 Bft)
22.06.2012 05:18 13,0 C 86 % 0,0 l/m 0,8 km/h (0 Bft) N 360 10,7 C 12,2 C 0,0 km/h (0 Bft)
22.06.2012 05:23 12,9 C 87 % 0,0 l/m 0,3 km/h (0 Bft) N 360 10,8 C 12,3 C 0,0 km/h (0 Bft)
22.06.2012 05:28 13,1 C 86 % 0,0 l/m 0,0 km/h (0 Bft) N 360 10,8 C 12,4 C 0,0 km/h (0 Bft)
22.06.2012 05:33 13,0 C 86 % 0,0 l/m 0,0 km/h (0 Bft) N 360 10,7 C 12,4 C 0,0 km/h (0 Bft)
22.06.2012 05:38 13,0 C 86 % 0,0 l/m 0,0 km/h (0 Bft) N 360 10,7 C 12,4 C 0,0 km/h (0 Bft)
22.06.2012 05:43 13,3 C 87 % 0,0 l/m 0,2 km/h (0 Bft) O-SO 112 11,2 C 12,5 C 3,1 km/h (1 Bft)
22.06.2012 05:48 13,4 C 87 % 0,0 l/m 1,6 km/h (1 Bft) SO 135 11,3 C 12,9 C 5,0 km/h (1 Bft)
22.06.2012 05:53 14,0 C 87 % 0,0 l/m 4,7 km/h (1 Bft) O-SO 112 11,9 C 13,8 C 6,1 km/h (2 Bft)
22.06.2012 05:58 14,2 C 86 % 0,0 l/m 5,6 km/h (1 Bft) SO 135 11,9 C 14,3 C 6,4 km/h (2 Bft)
22.06.2012 06:03 14,6 C 85 % 0,0 l/m 5,1 km/h (1 Bft) S 180 12,1 C 14,7 C 2,7 km/h (1 Bft)
22.06.2012 06:08 14,7 C 84 % 0,0 l/m 5,0 km/h (1 Bft) SO 135 12,0 C 14,9 C 6,9 km/h (2 Bft)
22.06.2012 06:13 14,8 C 84 % 0,0 l/m 5,0 km/h (1 Bft) SO 135 12,1 C 14,9 C 6,1 km/h (2 Bft)
22.06.2012 06:18 14,8 C 83 % 0,0 l/m 5,3 km/h (1 Bft) O-SO 112 11,9 C 15,0 C 6,8 km/h (2 Bft)
22.06.2012 06:23 15,0 C 82 % 0,0 l/m 5,1 km/h (1 Bft) O-SO 112 12,0 C 15,1 C 5,6 km/h (1 Bft)
22.06.2012 06:28 14,9 C 82 % 0,0 l/m 4,7 km/h (1 Bft) O-SO 112 11,9 C 15,1 C 4,5 km/h (1 Bft)
22.06.2012 06:33 14,9 C 82 % 0,0 l/m 3,5 km/h (1 Bft) O-NO 67 11,9 C 15,0 C 2,3 km/h (1 Bft)
22.06.2012 06:38 15,1 C 81 % 0,0 l/m 2,4 km/h (1 Bft) N-NW 337 11,9 C 15,1 C 0,0 km/h (0 Bft)
22.06.2012 06:43 16,2 C 78 % 0,0 l/m 0,3 km/h (0 Bft) N 360 12,4 C 16,4 C 0,0 km/h (0 Bft)
22.06.2012 06:48 15,5 C 79 % 0,0 l/m 0,2 km/h (0 Bft) N-NO 22 11,9 C 16,4 C 1,6 km/h (1 Bft)
22.06.2012 06:53 16,6 C 78 % 0,0 l/m 1,4 km/h (1 Bft) N 360 12,7 C 16,1 C 1,9 km/h (1 Bft)
22.06.2012 06:58 17,8 C 75 % 0,0 l/m 1,6 km/h (1 Bft) NW 315 13,3 C 17,7 C 1,9 km/h (1 Bft)
22.06.2012 07:03 19,2 C 68 % 0,0 l/m 1,1 km/h (1 Bft) N-NW 337 13,1 C 19,7 C 2,4 km/h (1 Bft)
22.06.2012 07:08 19,7 C 67 % 0,0 l/m 1,3 km/h (1 Bft) N-NW 337 13,4 C 20,3 C 0,0 km/h (0 Bft)
22.06.2012 07:13 20,3 C 66 % 0,0 l/m 1,3 km/h (1 Bft) S-SW 202 13,7 C 21,6 C 0,0 km/h (0 Bft)
22.06.2012 07:18 20,9 C 65 % 0,0 l/m 0,8 km/h (0 Bft) S 180 14,1 C 22,2 C 1,6 km/h (1 Bft)
22.06.2012 07:23 21,6 C 63 % 0,0 l/m 0,5 km/h (0 Bft) O-SO 112 14,2 C 23,5 C 0,0 km/h (0 Bft)
22.06.2012 07:28 22,0 C 59 % 0,0 l/m 0,6 km/h (0 Bft) O-SO 112 13,6 C 24,1 C 0,0 km/h (0 Bft)
22.06.2012 07:33 22,3 C 59 % 0,0 l/m 1,0 km/h (0 Bft) O-SO 112 13,9 C 25,1 C 3,9 km/h (1 Bft)
22.06.2012 07:38 22,4 C 58 % 0,0 l/m 0,8 km/h (0 Bft) S-SW 202 13,7 C 25,2 C 1,6 km/h (1 Bft)
22.06.2012 07:43 23,9 C 54 % 0,0 l/m 1,6 km/h (1 Bft) S 180 14,0 C 25,2 C 2,9 km/h (1 Bft)
22.06.2012 07:48 24,2 C 52 % 0,0 l/m 1,3 km/h (1 Bft) W-SW 247 13,7 C 25,3 C 1,8 km/h (1 Bft)
22.06.2012 07:53 24,1 C 50 % 0,0 l/m 1,9 km/h (1 Bft) SO 135 13,0 C 25,4 C 4,0 km/h (1 Bft)
22.06.2012 07:58 24,2 C 51 % 0,0 l/m 2,4 km/h (1 Bft) S-SW 202 13,4 C 25,3 C 3,5 km/h (1 Bft)
22.06.2012 08:03 24,6 C 52 % 0,0 l/m 3,1 km/h (1 Bft) S 180 14,1 C 24,9 C 3,1 km/h (1 Bft)
22.06.2012 08:08 25,2 C 49 % 0,0 l/m 2,9 km/h (1 Bft) S 180 13,7 C 25,0 C 1,6 km/h (1 Bft)
22.06.2012 08:13 25,5 C 49 % 0,0 l/m 2,4 km/h (1 Bft) S-SW 202 14,0 C 25,5 C 1,8 km/h (1 Bft)
22.06.2012 08:18 25,7 C 49 % 0,0 l/m 3,1 km/h (1 Bft) S-SO 157 14,2 C 25,4 C 5,0 km/h (1 Bft)
22.06.2012 08:23 24,5 C 49 % 0,0 l/m 5,1 km/h (1 Bft) SO 135 13,1 C 24,6 C 8,9 km/h (2 Bft)
22.06.2012 08:28 24,7 C 49 % 0,0 l/m 5,6 km/h (1 Bft) S 180 13,3 C 24,3 C 4,7 km/h (1 Bft)
22.06.2012 08:33 24,4 C 48 % 0,0 l/m 5,1 km/h (1 Bft) O-SO 112 13,1 C 24,3 C 4,8 km/h (1 Bft)
22.06.2012 08:38 24,3 C 49 % 0,0 l/m 5,1 km/h (1 Bft) SO 135 13,6 C 24,4 C 7,2 km/h (2 Bft)
22.06.2012 08:43 23,9 C 49 % 0,0 l/m 4,7 km/h (1 Bft) O-SO 112 14,2 C 24,6 C 2,9 km/h (1 Bft)
22.06.2012 08:48 23,9 C 48 % 0,0 l/m 4,3 km/h (1 Bft) W-SW 247 13,8 C 24,8 C 2,9 km/h (1 Bft)
22.06.2012 08:53 23,4 C 53 % 0,0 l/m 3,5 km/h (1 Bft) S-SO 157 14,0 C 24,2 C 4,0 km/h (1 Bft)
22.06.2012 08:58 23,5 C 49 % 0,0 l/m 2,9 km/h (1 Bft) O-NO 67 13,7 C 24,7 C 5,3 km/h (1 Bft)
22.06.2012 09:03 23,6 C 51 % 0,0 l/m 3,2 km/h (1 Bft) S-SO 157 14,3 C 24,5 C 5,1 km/h (1 Bft)
22.06.2012 09:08 23,0 C 54 % 0,0 l/m 3,9 km/h (1 Bft) S 180 13,6 C 24,5 C 6,4 km/h (2 Bft)
22.06.2012 09:13 23,4 C 54 % 0,0 l/m 4,7 km/h (1 Bft) O-SO 112 14,0 C 23,3 C 5,3 km/h (1 Bft)
22.06.2012 09:18 23,6 C 52 % 0,0 l/m 5,0 km/h (1 Bft) SO 135 14,6 C 24,3 C 7,1 km/h (2 Bft)
22.06.2012 09:23 21,0 C 58 % 0,0 l/m 5,1 km/h (1 Bft) S-SO 157 12,4 C 22,6 C 5,1 km/h (1 Bft)
22.06.2012 09:28 21,2 C 59 % 0,0 l/m 5,8 km/h (2 Bft) O-SO 112 12,9 C 21,8 C 7,7 km/h (2 Bft)
22.06.2012 09:33 20,7 C 60 % 0,0 l/m 6,0 km/h (2 Bft) SO 135 12,7 C 21,1 C 4,2 km/h (1 Bft)
22.06.2012 09:38 20,5 C 60 % 0,0 l/m 6,0 km/h (2 Bft) S 180 12,5 C 20,8 C 7,1 km/h (2 Bft)
22.06.2012 09:43 20,7 C 62 % 0,0 l/m 5,5 km/h (1 Bft) SO 135 13,2 C 20,8 C 7,1 km/h (2 Bft)
22.06.2012 09:48 20,7 C 60 % 0,0 l/m 6,0 km/h (2 Bft) SO 135 12,7 C 20,9 C 8,2 km/h (2 Bft)
22.06.2012 09:53 21,0 C 62 % 0,0 l/m 5,0 km/h (1 Bft) S-SW 202 13,4 C 21,3 C 5,3 km/h (1 Bft)
22.06.2012 09:58 20,5 C 62 % 0,0 l/m 3,5 km/h (1 Bft) O-SO 112 13,0 C 21,0 C 3,4 km/h (1 Bft)
22.06.2012 10:03 19,8 C 64 % 0,0 l/m 3,2 km/h (1 Bft) O-SO 112 12,8 C 20,5 C 6,8 km/h (2 Bft)
22.06.2012 10:08 22,9 C 59 % 0,0 l/m 3,4 km/h (1 Bft) W 270 15,6 C 21,5 C 1,8 km/h (1 Bft)
22.06.2012 10:13 24,2 C 49 % 0,0 l/m 3,2 km/h (1 Bft) S 180 13,8 C 25,4 C 6,0 km/h (2 Bft)
22.06.2012 10:18 23,9 C 51 % 0,0 l/m 4,3 km/h (1 Bft) SO 135 14,1 C 25,9 C 10,0 km/h (2 Bft)
22.06.2012 10:23 21,6 C 58 % 0,0 l/m 8,0 km/h (2 Bft) S 180 13,0 C 23,4 C 14,3 km/h (3 Bft)
22.06.2012 10:28 19,7 C 61 % 0,0 l/m 9,7 km/h (2 Bft) S-SO 157 12,0 C 20,8 C 12,9 km/h (3 Bft)
22.06.2012 10:33 18,9 C 65 % 0,0 l/m 8,9 km/h (2 Bft) SO 135 12,2 C 18,7 C 4,3 km/h (1 Bft)
22.06.2012 10:38 18,9 C 67 % 0,0 l/m 8,0 km/h (2 Bft) S-SO 157 12,6 C 18,6 C 13,0 km/h (3 Bft)
22.06.2012 10:43 20,9 C 63 % 0,0 l/m 7,7 km/h (2 Bft) O-SO 112 13,6 C 20,2 C 9,0 km/h (2 Bft)
22.06.2012 10:48 20,4 C 65 % 0,0 l/m 7,7 km/h (2 Bft) SO 135 13,6 C 20,2 C 7,6 km/h (2 Bft)
22.06.2012 10:53 20,1 C 66 % 0,0 l/m 6,3 km/h (2 Bft) S 180 13,5 C 20,5 C 7,1 km/h (2 Bft)
22.06.2012 10:58 19,7 C 66 % 0,0 l/m 7,2 km/h (2 Bft) O-SO 112 13,2 C 19,8 C 15,9 km/h (3 Bft)
22.06.2012 11:03 19,3 C 67 % 0,0 l/m 7,9 km/h (2 Bft) SO 135 13,0 C 19,0 C 7,9 km/h (2 Bft)
22.06.2012 11:08 19,4 C 68 % 0,0 l/m 6,6 km/h (2 Bft) SO 135 13,3 C 19,5 C 9,5 km/h (2 Bft)
22.06.2012 11:13 19,1 C 68 % 0,0 l/m 7,7 km/h (2 Bft) SO 135 13,1 C 18,9 C 9,7 km/h (2 Bft)
22.06.2012 11:18 18,9 C 68 % 0,0 l/m 8,5 km/h (2 Bft) W-NW 292 12,9 C 18,4 C 9,0 km/h (2 Bft)
22.06.2012 11:23 19,3 C 67 % 0,0 l/m 9,2 km/h (2 Bft) O-SO 112 13,0 C 18,6 C 12,9 km/h (3 Bft)
22.06.2012 11:28 19,2 C 67 % 0,0 l/m 8,2 km/h (2 Bft) SO 135 12,9 C 18,9 C 4,7 km/h (1 Bft)
22.06.2012 11:33 19,6 C 66 % 0,0 l/m 7,2 km/h (2 Bft) SO 135 13,1 C 19,4 C 13,7 km/h (3 Bft)
22.06.2012 11:38 19,3 C 66 % 0,0 l/m 7,9 km/h (2 Bft) SO 135 12,8 C 18,9 C 13,8 km/h (3 Bft)
22.06.2012 11:43 18,8 C 68 % 0,0 l/m 9,3 km/h (2 Bft) S-SO 157 12,8 C 17,9 C 10,1 km/h (2 Bft)
22.06.2012 11:48 18,8 C 69 % 0,0 l/m 9,0 km/h (2 Bft) S 180 13,0 C 18,0 C 10,1 km/h (2 Bft)
22.06.2012 11:53 18,5 C 70 % 0,0 l/m 8,0 km/h (2 Bft) SO 135 12,9 C 18,2 C 8,4 km/h (2 Bft)
22.06.2012 11:58 18,4 C 70 % 0,0 l/m 8,7 km/h (2 Bft) S 180 12,8 C 17,7 C 12,6 km/h (3 Bft)
22.06.2012 12:03 18,8 C 68 % 0,0 l/m 7,9 km/h (2 Bft) SO 135 12,8 C 18,3 C 8,5 km/h (2 Bft)
22.06.2012 12:08 19,8 C 68 % 0,0 l/m 7,2 km/h (2 Bft) S-SW 202 13,7 C 19,4 C 8,4 km/h (2 Bft)
22.06.2012 12:13 19,0 C 66 % 0,0 l/m 7,4 km/h (2 Bft) S-SO 157 12,5 C 19,3 C 6,3 km/h (2 Bft)
22.06.2012 12:18 19,0 C 67 % 0,0 l/m 7,1 km/h (2 Bft) S 180 12,7 C 19,2 C 8,0 km/h (2 Bft)
22.06.2012 12:23 18,3 C 68 % 0,0 l/m 6,3 km/h (2 Bft) O-SO 112 12,3 C 19,1 C 6,9 km/h (2 Bft)
22.06.2012 12:28 18,1 C 69 % 0,0 l/m 6,3 km/h (2 Bft) SO 135 12,3 C 18,7 C 10,9 km/h (2 Bft)
22.06.2012 12:33 17,9 C 71 % 0,0 l/m 6,6 km/h (2 Bft) S-SO 157 12,6 C 18,3 C 7,9 km/h (2 Bft)
22.06.2012 12:38 17,9 C 71 % 0,0 l/m 6,3 km/h (2 Bft) S-SO 157 12,6 C 18,3 C 6,4 km/h (2 Bft)
22.06.2012 12:43 17,1 C 73 % 0,0 l/m 6,1 km/h (2 Bft) SO 135 12,2 C 17,7 C 6,6 km/h (2 Bft)
22.06.2012 12:48 16,8 C 73 % 0,0 l/m 6,9 km/h (2 Bft) SO 135 11,9 C 17,1 C 6,3 km/h (2 Bft)
22.06.2012 12:53 16,6 C 74 % 0,0 l/m 6,6 km/h (2 Bft) S 180 11,9 C 16,7 C 6,4 km/h (2 Bft)
22.06.2012 12:58 16,7 C 74 % 0,0 l/m 6,3 km/h (2 Bft) S-SW 202 12,0 C 16,7 C 11,1 km/h (2 Bft)
22.06.2012 13:03 17,1 C 73 % 0,0 l/m 5,3 km/h (1 Bft) S 180 12,2 C 16,9 C 2,9 km/h (1 Bft)
22.06.2012 13:08 17,0 C 73 % 0,0 l/m 5,0 km/h (1 Bft) S 180 12,1 C 17,0 C 6,0 km/h (2 Bft)
22.06.2012 13:13 16,8 C 73 % 0,0 l/m 4,0 km/h (1 Bft) NO 45 11,9 C 16,9 C 2,3 km/h (1 Bft)
22.06.2012 13:18 16,7 C 73 % 0,0 l/m 3,7 km/h (1 Bft) S-SW 202 11,8 C 16,9 C 4,2 km/h (1 Bft)
22.06.2012 13:23 16,5 C 74 % 0,0 l/m 3,4 km/h (1 Bft) S-SW 202 11,8 C 16,8 C 5,6 km/h (1 Bft)
22.06.2012 13:28 16,5 C 73 % 0,0 l/m 3,5 km/h (1 Bft) S 180 11,6 C 16,7 C 3,1 km/h (1 Bft)
22.06.2012 13:33 16,5 C 73 % 0,0 l/m 3,4 km/h (1 Bft) S-SO 157 11,6 C 16,7 C 5,0 km/h (1 Bft)
22.06.2012 13:38 16,6 C 73 % 0,0 l/m 3,2 km/h (1 Bft) S 180 11,7 C 16,7 C 4,0 km/h (1 Bft)
22.06.2012 13:43 16,6 C 73 % 0,0 l/m 3,2 km/h (1 Bft) S-SO 157 11,7 C 16,8 C 2,3 km/h (1 Bft)
22.06.2012 13:48 16,9 C 73 % 0,0 l/m 2,4 km/h (1 Bft) SO 135 12,0 C 16,9 C 0,0 km/h (0 Bft)
22.06.2012 13:53 16,9 C 73 % 0,0 l/m 1,8 km/h (1 Bft) S-SO 157 12,0 C 17,2 C 2,9 km/h (1 Bft)
22.06.2012 13:58 16,9 C 73 % 0,0 l/m 1,9 km/h (1 Bft) SO 135 12,0 C 17,2 C 2,3 km/h (1 Bft)
22.06.2012 14:03 17,0 C 72 % 0,0 l/m 2,7 km/h (1 Bft) SW 225 11,9 C 17,3 C 4,5 km/h (1 Bft)
22.06.2012 14:08 17,2 C 72 % 0,0 l/m 2,4 km/h (1 Bft) S-SW 202 12,1 C 17,4 C 0,0 km/h (0 Bft)
22.06.2012 14:13 17,5 C 72 % 0,0 l/m 1,8 km/h (1 Bft) S-SO 157 12,4 C 17,9 C 2,3 km/h (1 Bft)
22.06.2012 14:18 17,5 C 71 % 0,0 l/m 1,0 km/h (0 Bft) S 180 12,2 C 18,1 C 2,1 km/h (1 Bft)
22.06.2012 14:23 17,7 C 71 % 0,0 l/m 1,3 km/h (1 Bft) S 180 12,4 C 18,4 C 1,9 km/h (1 Bft)
22.06.2012 14:28 17,5 C 71 % 0,0 l/m 1,1 km/h (1 Bft) W-NW 292 12,2 C 18,4 C 2,4 km/h (1 Bft)
22.06.2012 14:33 17,1 C 71 % 0,0 l/m 1,0 km/h (0 Bft) W-SW 247 11,8 C 18,2 C 0,0 km/h (0 Bft)
22.06.2012 14:38 16,9 C 71 % 0,0 l/m 1,0 km/h (0 Bft) W-SW 247 11,6 C 18,0 C 2,6 km/h (1 Bft)
22.06.2012 14:44 16,9 C 71 % 0,0 l/m 1,0 km/h (0 Bft) W-SW 247 11,6 C 18,0 C 2,6 km/h (1 Bft)
22.06.2012 14:55 16,8 C 73 % 0,0 l/m 1,9 km/h (1 Bft) W-NW 292 11,9 C 17,5 C 0,0 km/h (0 Bft)
22.06.2012 15:00 16,9 C 73 % 0,0 l/m 1,0 km/h (0 Bft) N-NO 22 12,0 C 17,5 C 0,0 km/h (0 Bft)
22.06.2012 15:05 17,1 C 73 % 0,0 l/m 0,6 km/h (0 Bft) W-NW 292 12,2 C 17,7 C 2,3 km/h (1 Bft)
22.06.2012 15:10 17,4 C 71 % 0,0 l/m 1,0 km/h (0 Bft) S-SW 202 12,1 C 18,2 C 0,0 km/h (0 Bft)
22.06.2012 15:15 17,3 C 72 % 0,0 l/m 1,0 km/h (0 Bft) N 360 12,2 C 18,3 C 2,3 km/h (1 Bft)
22.06.2012 15:20 17,1 C 72 % 0,0 l/m 0,8 km/h (0 Bft) NW 315 12,0 C 18,1 C 0,0 km/h (0 Bft)
22.06.2012 15:25 17,2 C 72 % 0,0 l/m 1,3 km/h (1 Bft) W-SW 247 12,1 C 18,0 C 2,3 km/h (1 Bft)
22.06.2012 15:30 17,0 C 72 % 0,0 l/m 1,1 km/h (1 Bft) W 270 11,9 C 17,9 C 2,3 km/h (1 Bft)
22.06.2012 15:35 16,9 C 73 % 0,0 l/m 1,6 km/h (1 Bft) NW 315 12,0 C 17,7 C 0,0 km/h (0 Bft)
22.06.2012 15:40 16,9 C 73 % 0,0 l/m 1,1 km/h (1 Bft) W-NW 292 12,0 C 17,7 C 0,0 km/h (0 Bft)
22.06.2012 15:45 16,9 C 74 % 0,0 l/m 0,3 km/h (0 Bft) N-NW 337 12,2 C 17,7 C 0,0 km/h (0 Bft)
22.06.2012 15:50 17,1 C 73 % 0,0 l/m 0,5 km/h (0 Bft) N-NW 337 12,2 C 17,9 C 0,0 km/h (0 Bft)
22.06.2012 15:55 17,3 C 72 % 0,0 l/m 1,1 km/h (1 Bft) N 360 12,2 C 18,1 C 2,7 km/h (1 Bft)
22.06.2012 16:00 17,6 C 72 % 0,0 l/m 1,3 km/h (1 Bft) NW 315 12,5 C 18,5 C 2,1 km/h (1 Bft)
22.06.2012 16:05 17,9 C 72 % 0,0 l/m 1,6 km/h (1 Bft) W 270 12,8 C 18,7 C 2,6 km/h (1 Bft)
22.06.2012 16:10 19,1 C 68 % 0,0 l/m 2,3 km/h (1 Bft) NO 45 13,1 C 19,8 C 2,4 km/h (1 Bft)
22.06.2012 16:15 18,7 C 68 % 0,0 l/m 2,9 km/h (1 Bft) W-NW 292 12,7 C 20,4 C 7,2 km/h (2 Bft)
22.06.2012 16:20 18,6 C 68 % 0,0 l/m 2,4 km/h (1 Bft) W-NW 292 12,6 C 20,4 C 2,9 km/h (1 Bft)
22.06.2012 16:25 18,6 C 68 % 0,0 l/m 2,6 km/h (1 Bft) W-NW 292 12,6 C 20,5 C 4,5 km/h (1 Bft)
22.06.2012 16:30 19,3 C 66 % 0,0 l/m 2,3 km/h (1 Bft) W 270 12,8 C 21,3 C 2,9 km/h (1 Bft)
22.06.2012 16:35 19,4 C 65 % 0,0 l/m 2,7 km/h (1 Bft) N-NW 337 12,6 C 21,7 C 3,4 km/h (1 Bft)
22.06.2012 16:40 20,6 C 64 % 0,0 l/m 2,7 km/h (1 Bft) N 360 13,5 C 23,0 C 5,5 km/h (1 Bft)
22.06.2012 16:45 20,2 C 62 % 0,0 l/m 3,4 km/h (1 Bft) W-NW 292 12,7 C 23,8 C 11,1 km/h (2 Bft)
22.06.2012 16:50 19,4 C 63 % 0,0 l/m 4,0 km/h (1 Bft) N-NW 337 12,2 C 23,9 C 4,7 km/h (1 Bft)
22.06.2012 16:55 19,3 C 64 % 0,0 l/m 4,0 km/h (1 Bft) NO 45 12,3 C 23,2 C 0,0 km/h (0 Bft)
22.06.2012 17:00 19,0 C 65 % 0,0 l/m 2,9 km/h (1 Bft) N 360 12,3 C 23,4 C 4,5 km/h (1 Bft)
22.06.2012 17:05 18,9 C 64 % 0,0 l/m 2,1 km/h (1 Bft) S 180 11,9 C 23,3 C 3,7 km/h (1 Bft)
22.06.2012 17:10 18,8 C 67 % 0,0 l/m 2,6 km/h (1 Bft) W-SW 247 12,5 C 22,5 C 4,0 km/h (1 Bft)
22.06.2012 17:15 18,8 C 67 % 0,0 l/m 3,4 km/h (1 Bft) W-NW 292 12,5 C 21,9 C 7,2 km/h (2 Bft)
22.06.2012 17:20 19,0 C 66 % 0,0 l/m 2,4 km/h (1 Bft) SO 135 12,5 C 21,2 C 0,0 km/h (0 Bft)
22.06.2012 17:25 19,4 C 66 % 0,0 l/m 1,6 km/h (1 Bft) W-NW 292 12,9 C 22,2 C 4,3 km/h (1 Bft)
22.06.2012 17:30 19,7 C 65 % 0,0 l/m 1,8 km/h (1 Bft) N 360 12,9 C 23,4 C 3,7 km/h (1 Bft)
22.06.2012 17:35 19,6 C 65 % 0,0 l/m 1,8 km/h (1 Bft) SO 135 12,8 C 24,3 C 2,6 km/h (1 Bft)
22.06.2012 17:40 19,6 C 64 % 0,0 l/m 1,6 km/h (1 Bft) N-NW 337 12,6 C 24,6 C 2,1 km/h (1 Bft)
22.06.2012 17:45 19,7 C 65 % 0,0 l/m 1,4 km/h (1 Bft) S 180 12,9 C 24,1 C 2,1 km/h (1 Bft)
22.06.2012 17:50 19,9 C 64 % 0,0 l/m 1,0 km/h (0 Bft) S-SO 157 12,9 C 23,3 C 2,6 km/h (1 Bft)
22.06.2012 17:55 20,0 C 65 % 0,0 l/m 1,3 km/h (1 Bft) SO 135 13,2 C 22,8 C 2,7 km/h (1 Bft)
22.06.2012 18:00 19,7 C 65 % 0,0 l/m 1,8 km/h (1 Bft) S-SO 157 12,9 C 21,9 C 0,0 km/h (0 Bft)
22.06.2012 18:05 19,7 C 66 % 0,0 l/m 1,4 km/h (1 Bft) O-NO 67 13,2 C 21,7 C 1,8 km/h (1 Bft)
22.06.2012 18:10 19,2 C 67 % 0,0 l/m 0,5 km/h (0 Bft) O 90 12,9 C 21,6 C 0,0 km/h (0 Bft)
22.06.2012 18:15 19,1 C 67 % 0,0 l/m 0,5 km/h (0 Bft) N-NW 337 12,8 C 21,8 C 0,0 km/h (0 Bft)
22.06.2012 18:20 18,8 C 67 % 0,0 l/m 0,2 km/h (0 Bft) O-SO 112 12,5 C 22,1 C 1,9 km/h (1 Bft)
22.06.2012 18:25 18,6 C 68 % 0,0 l/m 0,0 km/h (0 Bft) O 90 12,6 C 21,8 C 0,0 km/h (0 Bft)
22.06.2012 18:30 18,3 C 72 % 0,0 l/m 0,5 km/h (0 Bft) W-NW 292 13,2 C 21,3 C 3,1 km/h (1 Bft)
22.06.2012 18:35 18,7 C 71 % 0,0 l/m 1,9 km/h (1 Bft) W-SW 247 13,3 C 21,0 C 6,0 km/h (2 Bft)
22.06.2012 18:40 19,5 C 69 % 0,0 l/m 3,5 km/h (1 Bft) W 270 13,7 C 22,1 C 5,0 km/h (1 Bft)
22.06.2012 18:45 19,6 C 69 % 0,0 l/m 4,3 km/h (1 Bft) W-NW 292 13,8 C 22,5 C 5,6 km/h (1 Bft)
22.06.2012 18:50 18,7 C 69 % 0,0 l/m 4,3 km/h (1 Bft) S 180 12,9 C 21,7 C 3,1 km/h (1 Bft)
22.06.2012 18:55 18,6 C 69 % 0,0 l/m 3,2 km/h (1 Bft) W-SW 247 12,8 C 20,9 C 1,9 km/h (1 Bft)
22.06.2012 18:58 19,4 C 69 % 0,0 l/m 1,4 km/h (1 Bft) W-NW 292 13,6 C 22,1 C 0,0 km/h (0 Bft)
22.06.2012 19:03 19,2 C 67 % 0,0 l/m 1,3 km/h (1 Bft) W 270 12,9 C 23,4 C 3,5 km/h (1 Bft)
22.06.2012 19:08 19,4 C 68 % 0,0 l/m 1,6 km/h (1 Bft) S 180 13,3 C 23,9 C 1,6 km/h (1 Bft)
22.06.2012 19:13 19,2 C 66 % 0,0 l/m 1,1 km/h (1 Bft) S-SW 202 12,7 C 23,3 C 2,3 km/h (1 Bft)
22.06.2012 19:18 19,4 C 67 % 0,0 l/m 1,3 km/h (1 Bft) S 180 13,1 C 23,6 C 3,7 km/h (1 Bft)
22.06.2012 19:23 19,9 C 64 % 0,0 l/m 3,1 km/h (1 Bft) O-SO 112 12,9 C 23,5 C 5,6 km/h (1 Bft)
22.06.2012 19:28 20,2 C 63 % 0,0 l/m 3,5 km/h (1 Bft) O-SO 112 12,9 C 23,4 C 4,5 km/h (1 Bft)
22.06.2012 19:33 19,9 C 63 % 0,0 l/m 2,9 km/h (1 Bft) S-SO 157 12,6 C 23,4 C 1,8 km/h (1 Bft)
22.06.2012 19:38 19,9 C 63 % 0,0 l/m 2,4 km/h (1 Bft) SO 135 12,6 C 23,6 C 3,5 km/h (1 Bft)
22.06.2012 19:43 20,2 C 61 % 0,0 l/m 3,2 km/h (1 Bft) SO 135 12,4 C 23,6 C 3,1 km/h (1 Bft)
22.06.2012 19:48 19,9 C 63 % 0,0 l/m 2,9 km/h (1 Bft) SO 135 12,6 C 23,8 C 2,1 km/h (1 Bft)
22.06.2012 19:53 20,0 C 63 % 0,0 l/m 1,3 km/h (1 Bft) S 180 12,7 C 24,2 C 1,6 km/h (1 Bft)
22.06.2012 19:58 20,1 C 61 % 0,0 l/m 1,9 km/h (1 Bft) S-SO 157 12,3 C 24,3 C 4,5 km/h (1 Bft)
22.06.2012 20:03 19,2 C 64 % 0,0 l/m 2,6 km/h (1 Bft) O-NO 67 12,2 C 22,9 C 2,3 km/h (1 Bft)
22.06.2012 20:08 18,7 C 65 % 0,0 l/m 2,1 km/h (1 Bft) O 90 12,0 C 21,9 C 3,2 km/h (1 Bft)
22.06.2012 20:13 18,4 C 65 % 0,0 l/m 1,1 km/h (1 Bft) W-SW 247 11,7 C 20,7 C 0,0 km/h (0 Bft)
22.06.2012 20:18 18,4 C 66 % 0,0 l/m 2,3 km/h (1 Bft) S 180 11,9 C 20,0 C 5,3 km/h (1 Bft)
22.06.2012 20:23 18,0 C 65 % 0,0 l/m 3,7 km/h (1 Bft) O-SO 112 11,3 C 19,3 C 7,7 km/h (2 Bft)
22.06.2012 20:28 17,8 C 66 % 0,0 l/m 4,3 km/h (1 Bft) O-SO 112 11,4 C 19,0 C 6,1 km/h (2 Bft)
22.06.2012 20:33 17,6 C 63 % 0,0 l/m 4,5 km/h (1 Bft) O-SO 112 10,5 C 18,5 C 6,8 km/h (2 Bft)
22.06.2012 20:38 17,6 C 64 % 0,0 l/m 3,7 km/h (1 Bft) O 90 10,7 C 18,8 C 6,3 km/h (2 Bft)
22.06.2012 20:43 17,5 C 59 % 0,0 l/m 1,9 km/h (1 Bft) SO 135 9,4 C 19,5 C 3,9 km/h (1 Bft)
22.06.2012 20:48 17,3 C 59 % 0,0 l/m 1,4 km/h (1 Bft) O-NO 67 9,2 C 19,7 C 2,1 km/h (1 Bft)
22.06.2012 20:53 17,2 C 56 % 0,0 l/m 1,0 km/h (0 Bft) SO 135 8,3 C 19,5 C 2,9 km/h (1 Bft)
22.06.2012 20:58 17,0 C 56 % 0,0 l/m 1,0 km/h (0 Bft) SO 135 8,2 C 19,3 C 2,1 km/h (1 Bft)
22.06.2012 21:03 16,6 C 57 % 0,0 l/m 0,6 km/h (0 Bft) NO 45 8,0 C 18,8 C 2,1 km/h (1 Bft)
22.06.2012 21:08 16,2 C 58 % 0,0 l/m 0,3 km/h (0 Bft) O-NO 67 7,9 C 18,3 C 1,8 km/h (1 Bft)
22.06.2012 21:13 15,9 C 59 % 0,0 l/m 0,3 km/h (0 Bft) N-NO 22 7,9 C 17,3 C 0,0 km/h (0 Bft)
22.06.2012 21:18 15,8 C 60 % 0,0 l/m 0,8 km/h (0 Bft) O-SO 112 8,1 C 16,8 C 1,6 km/h (1 Bft)
22.06.2012 21:23 15,8 C 58 % 0,0 l/m 1,0 km/h (0 Bft) N 360 7,6 C 16,4 C 1,9 km/h (1 Bft)
22.06.2012 21:28 15,8 C 58 % 0,0 l/m 0,8 km/h (0 Bft) O 90 7,6 C 16,2 C 0,0 km/h (0 Bft)
22.06.2012 21:33 15,8 C 58 % 0,0 l/m 1,0 km/h (0 Bft) O-NO 67 7,6 C 16,1 C 3,9 km/h (1 Bft)
22.06.2012 21:38 15,7 C 58 % 0,0 l/m 1,0 km/h (0 Bft) N 360 7,5 C 16,1 C 1,9 km/h (1 Bft)
22.06.2012 21:43 15,6 C 57 % 0,0 l/m 0,8 km/h (0 Bft) N-NO 22 7,1 C 16,0 C 0,0 km/h (0 Bft)
22.06.2012 21:48 15,4 C 58 % 0,0 l/m 0,5 km/h (0 Bft) N-NO 22 7,2 C 15,8 C 1,8 km/h (1 Bft)
22.06.2012 21:53 15,1 C 59 % 0,0 l/m 0,5 km/h (0 Bft) NO 45 7,1 C 15,4 C 0,0 km/h (0 Bft)
22.06.2012 21:58 15,0 C 58 % 0,0 l/m 0,8 km/h (0 Bft) N-NO 22 6,8 C 15,1 C 0,0 km/h (0 Bft)
22.06.2012 22:03 14,8 C 60 % 0,0 l/m 1,3 km/h (1 Bft) N 360 7,1 C 14,8 C 3,5 km/h (1 Bft)
22.06.2012 22:08 14,8 C 61 % 0,0 l/m 1,4 km/h (1 Bft) N-NO 22 7,4 C 14,7 C 3,1 km/h (1 Bft)
22.06.2012 22:13 14,8 C 62 % 0,0 l/m 1,4 km/h (1 Bft) N-NO 22 7,6 C 14,6 C 2,9 km/h (1 Bft)
22.06.2012 22:18 14,8 C 62 % 0,0 l/m 1,8 km/h (1 Bft) N 360 7,6 C 14,6 C 3,9 km/h (1 Bft)
22.06.2012 22:23 14,7 C 62 % 0,0 l/m 1,9 km/h (1 Bft) N 360 7,5 C 14,5 C 3,9 km/h (1 Bft)
22.06.2012 22:28 14,6 C 61 % 0,0 l/m 1,8 km/h (1 Bft) N 360 7,2 C 14,4 C 2,6 km/h (1 Bft)
22.06.2012 22:33 14,5 C 63 % 0,0 l/m 1,6 km/h (1 Bft) N 360 7,5 C 14,3 C 2,6 km/h (1 Bft)
22.06.2012 22:38 14,5 C 63 % 0,0 l/m 1,3 km/h (1 Bft) N-NO 22 7,5 C 14,2 C 0,0 km/h (0 Bft)
22.06.2012 22:43 14,5 C 63 % 0,0 l/m 1,1 km/h (1 Bft) NO 45 7,5 C 14,2 C 2,9 km/h (1 Bft)
22.06.2012 22:48 14,5 C 63 % 0,0 l/m 0,6 km/h (0 Bft) N 360 7,5 C 14,3 C 0,0 km/h (0 Bft)
22.06.2012 22:53 14,4 C 65 % 0,0 l/m 0,5 km/h (0 Bft) N-NW 337 7,9 C 14,3 C 0,0 km/h (0 Bft)
22.06.2012 22:58 14,3 C 66 % 0,0 l/m 0,3 km/h (0 Bft) NO 45 8,0 C 14,2 C 0,0 km/h (0 Bft)
22.06.2012 23:03 14,2 C 67 % 0,0 l/m 0,0 km/h (0 Bft) N 360 8,2 C 14,1 C 0,0 km/h (0 Bft)
22.06.2012 23:08 14,1 C 67 % 0,0 l/m 0,0 km/h (0 Bft) N 360 8,1 C 14,0 C 0,0 km/h (0 Bft)
22.06.2012 23:13 14,0 C 68 % 0,0 l/m 0,0 km/h (0 Bft) NO 45 8,2 C 13,9 C 0,0 km/h (0 Bft)
22.06.2012 23:18 14,0 C 68 % 0,0 l/m 0,0 km/h (0 Bft) N 360 8,2 C 13,9 C 0,0 km/h (0 Bft)
22.06.2012 23:23 14,1 C 68 % 0,0 l/m 0,2 km/h (0 Bft) NW 315 8,3 C 13,8 C 2,3 km/h (1 Bft)
22.06.2012 23:28 14,3 C 65 % 0,0 l/m 0,8 km/h (0 Bft) N-NO 22 7,8 C 14,0 C 4,2 km/h (1 Bft)
22.06.2012 23:33 14,4 C 65 % 0,0 l/m 1,3 km/h (1 Bft) N 360 7,9 C 14,1 C 2,4 km/h (1 Bft)
22.06.2012 23:38 14,3 C 66 % 0,0 l/m 1,0 km/h (0 Bft) NO 45 8,0 C 14,1 C 0,0 km/h (0 Bft)
22.06.2012 23:43 14,4 C 67 % 0,0 l/m 1,0 km/h (0 Bft) SO 135 8,4 C 14,1 C 5,8 km/h (2 Bft)
22.06.2012 23:48 14,4 C 66 % 0,0 l/m 1,1 km/h (1 Bft) N-NO 22 8,1 C 14,2 C 0,0 km/h (0 Bft)
22.06.2012 23:53 14,3 C 67 % 0,0 l/m 1,0 km/h (0 Bft) N 360 8,3 C 14,2 C 0,0 km/h (0 Bft)
22.06.2012 23:58 14,3 C 68 % 0,0 l/m 0,3 km/h (0 Bft) O-NO 67 8,5 C 14,2 C 0,0 km/h (0 Bft)
_ Min-Zeit 05:08 08:48 - 23:18 - - 21:58 05:18 23:58
Minimum _ 12,7 C 48 % - 0,0 km/h (0 Bft) - - 6,8 C 12,2 C 0,0 km/h (0 Bft)
_ Max-Zeit 08:18 05:53 23:58 10:28 - - 10:08 10:18 10:58
Maximum _ 25,7 C 87 % 0,0 l/m 9,7 km/h
S-SO (2 Bft)
- - 15,6 C 25,9 C 15,9 km/h
O-SO (3 Bft)
Durchschnitt _ 17,4 C 70 % #0,0 l/m 2,5 km/h (1 Bft) SO - 11,8 C 18,1 C 3,3 km/h (1 Bft)